Location: Peterborough
(44.3091°N, 78.3197°W)
Time: 00:02:01
(UTC-04:00)

Vanguard 2 Rocket - Pass Details

Date: 27 March 2023
Orbit: 554 x 3314 km, 32.9° (Epoch: 02 June)

Event Time Altitude Azimuth Distance (km) Brightness Sun altitude
Rises 18:28:48 0° 197° (SSW) 3,061 9.9 10.8°
Reaches altitude 10° 18:32:19 10° 167° (SSE) 2,463 9.1 10.2°
Maximum altitude 18:34:50 13° 141° (SE) 2,519 8.9 9.8°
Drops below altitude 10° 18:37:50 10° 116° (ESE) 3,065 9.1 9.2°
Sets 18:43:27 0° 92° (E) 4,696 9.9 8.2°
